Regional Weather Roundup
Issued by NWS

Home | Current Version | Previous Version | Graphics & Text | Print | Product List | Glossary Off
Versions: 1 2 3 4 5 6 7 8 9 10 11 12 13 14 15 16 17 18 19 20 21 22 23 24 25 26 27 28 29 30 31 32 33 34 35 36 37 38 39 40 41 42 43 44 45 46 47 48 49 50

000
ASUS43 KMKX 232100
RWRWI

WISCONSIN REGIONAL WEATHER ROUNDUP
NATIONAL WEATHER SERVICE MILWAUKEE/SULLIVAN WI
400 PM CDT MON OCT 23 2017

NOTE: "FAIR" INDICATES FEW OR NO CLOUDS BELOW 12,000 FEET WITH NO
SIGNIFICANT WEATHER AND/OR OBSTRUCTIONS TO VISIBILITY.

WIZ001-002-006>008-014>016-023>028-232200-
NORTHWEST WISCONSIN

CITY           SKY/WX    TMP DP  RH WIND       PRES   REMARKS
SUPERIOR ARPT  MOSUNNY   57  41  54 NW17G26   29.70R
ASHLAND        CLOUDY    62  42  47 NW9       29.67F
HAYWARD        CLOUDY    59  41  51 VRB6      29.69R
SIREN          MOSUNNY   57  38  49 NW20G25   29.73R
CUMBERLAND     CLOUDY    55  37  50 NW16      29.71R
RICE LAKE      CLOUDY    58  40  52 W14       29.72R
CHETEK         CLOUDY    58  42  55 W7        29.70S
LADYSMITH      PTSUNNY   57  44  60 SW6       29.71R
EAU CLAIRE     NOT AVBL
MENOMONIE      PTSUNNY   59  41  50 W13       29.71R
NEW RICHMOND   PTSUNNY   56  38  50 W17G28    29.74R
OSCEOLA        MOSUNNY   57  39  50 W15G21    29.77S
$$

WIZ003>005-009-010-017-018-232200-
NORTH CENTRAL WISCONSIN

CITY           SKY/WX    TMP DP  RH WIND       PRES   REMARKS
MANITOWISH WTR CLOUDY    57  42  57 SE7       29.67S
ARBOR VITAE    MOSUNNY   57  44  61 SW3       29.68F
WOODRUFF       MOSUNNY   57  44  61 SW3       29.68F
RHINELANDER    CLOUDY    53  41  63 S5        29.69S
EAGLE RIVER    CLOUDY    54  37  52 SW3       29.68S
LAND O LAKES   CLOUDY    55  37  50 CALM      29.70R
PHILLIPS       MOSUNNY   56  43  60 W3        29.68R
TOMAHAWK       CLOUDY    54  40  59 CALM      29.69S
MEDFORD        CLOUDY    52  41  66 W6        29.70R
MERRILL        CLOUDY    56  42  60 SW5       29.70S
$$

WIZ029-030-035-036-043>047-232200-
CENTRAL WISCONSIN

CITY           SKY/WX    TMP DP  RH WIND       PRES   REMARKS
WAUSAU         CLOUDY    55  41  59 W9        29.68S
MOSINEE        CLOUDY    54  43  66 SW9       29.71S
MARSHFIELD     CLOUDY    54  42  64 W7        29.69S
STEVENS POINT  MOSUNNY   55  40  58 SW5       29.70S
WAUPACA        CLOUDY    55  45  69 CALM      29.71S
WAUTOMA        CLOUDY   N/A N/A N/A SW6       29.69F
WISC RAPIDS    CLOUDY    57  44  62 W5        29.70F
CAMP DOUGLAS   NOT AVBL
$$

WIZ011>013-019>022-031-037>040-048>050-232200-
NORTHEAST WISCONSIN

CITY           SKY/WX    TMP DP  RH WIND       PRES   REMARKS
ANTIGO         CLOUDY    51  40  66 S8        29.70F
SHAWANO        CLOUDY    54  47  76 CALM      29.70F
OCONTO         CLOUDY    51  45  80 CALM      29.71F
STURGEON BAY   CLOUDY    51  46  83 NW7       29.70F
GREEN BAY      CLOUDY    53  46  77 NE3       29.68F
MANITOWOC      CLOUDY    52  44  74 N8        29.68F
APPLETON       PTSUNNY   54  37  54 CALM      29.68F
CLINTONVILLE   NOT AVBL
OSHKOSH        CLOUDY    54  41  61 CALM      29.67F
$$

WIZ032>034-041-042-053>061-232200-
SOUTHWEST WISCONSIN

CITY           SKY/WX    TMP DP  RH WIND       PRES   REMARKS
LA CROSSE      CLOUDY    56  47  71 CALM      29.72F
SPARTA         CLOUDY    56  43  62 W9G16     29.73S
VIROQUA        CLOUDY    55  43  62 NW8       29.73S
BOSCOBEL       CLOUDY    60  43  53 NW8       29.72F
PRAIRIE DU CHI RAIN      53  44  69 W8G15     29.75R
PLATTEVILLE    PTSUNNY   59  46  62 W10       29.73F
$$

WIZ056-057-062-063-064-067-068-232200-
SOUTH CENTRAL WISCONSIN

CITY           SKY/WX    TMP DP  RH WIND       PRES   REMARKS
REEDSBURG      CLOUDY    56  44  64 W10       29.70F
BARABOO/DELLS  CLOUDY    56  42  60 W12       29.70F
LONE ROCK      MOSUNNY   59  45  59 NW12      29.71F
MINERAL POINT  MOSUNNY   59  45  58 W10G17    29.71F
MADISON        CLOUDY    57  42  57 SW3       29.69F
MIDDLETON      CLOUDY    59  44  56 SW6       29.70F
WATERTOWN      CLOUDY    52  41  66 CALM      29.68F
MONROE         CLOUDY    55  43  62 SW9       29.70F
JANESVILLE     CLOUDY    55  45  67 CALM      29.70S
$$

WIZ051-052-058>065-066-070>072-232200-
SOUTHEAST WISCONSIN

CITY           SKY/WX    TMP DP  RH WIND       PRES   REMARKS
MILWAUKEE      CLOUDY    54  47  77 NW8       29.69S
WAUKESHA       SUNNY     52  45  76 W6        29.70F
MILWAUKEE/TIMM SUNNY     54  45  71 W6        29.69F
RACINE         CLOUDY    53  49  86 W3        29.71R
BURLINGTON     CLOUDY    52  47  84 W5        29.69S
KENOSHA        CLOUDY    53  48  83 W7        29.69R
FOND DU LAC    CLOUDY    54  41  61 W3        29.68F
SHEBOYGAN      CLOUDY    53  47  79 NW3       29.68F
WEST BEND      CLOUDY    52  45  76 NW5       29.67F
JUNEAU         CLOUDY    51  40  66 CALM      29.70F
$$

LSZ147-162-232200-
LAKE SUPERIOR

STATION/POSITION TIME  TEMP    WIND        PRES    WAVE
                       AIR SEA DIR/SP/G            HT/PER
                 (UTC) (F)     (DEG/KT/KT) (MB)    (FT/S)
W MID LAKE BUOY  1950   53 51              1004.8F   2/ 5
DEVILS ISLAND    2000   57     240/ 13/ 16 1004.6F
PORT WING        1840          260/ 10/ 13 1005.1
SAXON HARBOR     2040   60      80/  3/  3 1004.4F
$$

LMZ867-665-643>646-232200-
LAKE MICHIGAN

STATION/POSITION TIME  TEMP    WIND        PRES    WAVE
                       AIR SEA DIR/SP/G            HT/PER
                 (UTC) (F)     (DEG/KT/KT) (MB)    (FT/S)
S GREEN BAY BUOY 2030   52 58  280/  4/  6 1006.6F
N MID LAKE BUOY  1950   53 57  360/  4/  6 1007.4F   0
NORTHPORT PIER   2040   53      60/  3/  3 1006.4F
KEWAUNEE LAKESHO 2030   49      30/  3/  4 1005.3F
SHEBOYGAN LAKESH 2000   49     350/  5/  6 1005.6F
PORT WASHINGTON  2030   54     300/  7/ 10 1005.8F
MILWAUKEE LAKESH 2030   53     300/  5/  7   N/A
S MID LAKE BUOY  1950   55 60  360/ 19/ 23 1003.5F   3/ 4
KENOSHA   LAKESH 2000   52     310/  8/ 13 1004.7
$$

TC  - TEMPERATURE IN CELSIUS
VSB - VISIBILITY IN STATUTE MILES
WCI - WIND CHILL INDEX
HX  - HEAT INDEX





USA.gov is the U.S. government's official web portal to all federal, state and local government web resources and services.